This is the latest recevied weather packets stored in our database for station/object EA1IQY-10. If no packets are shown the sender has not sent any weather packets the latest 10 day(s).
| Time | Temp. | Humidity | Pressure | Rain* | Wind** | Luminosity | Snow |
|---|---|---|---|---|---|---|---|
| 1777537418 | 18.89° C | 100% | 1004.4 hPa | - | - | - | - |
| 1777536704 | 20° C | 100% | 1004.4 hPa | - | - | - | - |
| 1777535838 | 20° C | 100% | 1004.3 hPa | - | - | - | - |
| 1777534938 | 18.33° C | 100% | 1004.3 hPa | - | - | - | - |
| 1777534038 | 19.44° C | 100% | 1004.1 hPa | - | - | - | - |
| 1777533138 | 18.89° C | 100% | 1003.8 hPa | - | - | - | - |
| 1777532238 | 17.78° C | 100% | 1003.7 hPa | - | - | - | - |
| 1777531338 | 17.22° C | 100% | 1003.6 hPa | - | - | - | - |
| 1777530438 | 18.33° C | 100% | 1003.4 hPa | - | - | - | - |
| 1777529537 | 17.22° C | 100% | 1003.3 hPa | - | - | - | - |
| 1777528637 | 17.78° C | 100% | 1003.1 hPa | - | - | - | - |
| 1777527737 | 16.11° C | 100% | 1003 hPa | - | - | - | - |
| 1777526837 | 17.22° C | 100% | 1003 hPa | - | - | - | - |
| 1777525937 | 18.33° C | 100% | 1002.8 hPa | - | - | - | - |
| 1777525037 | 19.44° C | 100% | 1002.8 hPa | - | - | - | - |
| 1777524137 | 16.67° C | 100% | 1002.5 hPa | - | - | - | - |
| 1777523237 | 16.11° C | 100% | 1002.6 hPa | - | - | - | - |
| 1777522336 | 16.11° C | 100% | 1002.5 hPa | - | - | - | - |
| 1777521436 | 17.22° C | 100% | 1002.4 hPa | - | - | - | - |
| 1777520536 | 16.11° C | 100% | 1002.3 hPa | - | - | - | - |
| 1777519636 | 17.78° C | 100% | 1002.3 hPa | - | - | - | - |
| 1777518736 | 17.78° C | 100% | 1002.1 hPa | - | - | - | - |
| 1777517836 | 17.78° C | 100% | 1002 hPa | - | - | - | - |
| 1777516936 | 19.44° C | 100% | 1001.8 hPa | - | - | - | - |
| 1777516036 | 18.33° C | 100% | 1001.7 hPa | - | - | - | - |
* Rain since midnight (hover to see other rain measurements)
** Current wind speed in m/s (hover to see current wind gust speed)